Location: Unspecified
(0.0000°N, 0.0000°E)
Time: 03:12:14
(UTC+01:00)

Daily predictions for brighter satellites

Satellite Brightness Start Highest point End
(mag) Time Altitude Azimuth Time Altitude Azimuth Time Altitude Azimuth
ARIANE 5 DEB (SYLDA) 4.3 05:02:29 52° SSE 05:02:29 52° SSE 05:11:43 10° E
ARIANE 5 DEB (SYLDA) 3.7 05:04:52 62° S 05:04:54 62° S 05:18:34 10° E
ATLAS 3B R/B 2.9 05:04:16 14° SSW 05:11:01 85° ESE 05:18:38 10° NNE
Cosmos 1932 4.4 05:13:57 71° N 05:13:57 71° N 05:19:30 10° NNE
ARIANE DEB (SYLDA) 4.2 05:09:06 40° WSW 05:13:35 58° SSW 05:18:43 10° ESE
Hubble Space Telescope 2.9 05:17:28 22° SSE 05:17:28 22° SSE 05:19:12 10° SE
Cosmos 2266 Rocket 3.9 05:14:42 33° N 05:17:33 77° E 05:23:35 10° S
Ariane 5 R/B 3.5 05:19:46 78° E 05:19:46 78° E 05:24:47 10° E
ARIANE 44L R/B 3.7 05:22:05 65° SSW 05:22:14 65° S 05:26:01 10° E
NOAA 6 4.4 05:21:16 10° NNE 05:26:18 62° ESE 05:31:21 10° S
Ariane H10+ 4.0 05:24:32 49° WSW 05:26:29 70° S 05:46:53 10° E
Okean 1-7 4.1 05:29:14 10° S 05:38:45 - N 05:31:45 35° S
GPS 2-15 Rocket1 3.7 05:33:25 46° N 05:33:46 47° NNE 05:38:26 10° E
Gbstr 26 Del rocket 4.1 05:33:09 52° WNW 05:34:33 63° SW 05:42:07 10° SSE
Sakura Rocket 3.7 05:35:12 54° W 05:36:31 71° SSW 05:41:36 10° SE
OAO 3 Rocket 3.7 05:37:45 41° N 05:38:44 48° NE 05:43:14 10° ESE
Cosmos 1782 3.9 05:37:53 10° SSE 05:41:41 44° E 05:45:27 10° NNE
CZ-2C R/B 3.6 05:37:05 10° S 05:41:50 79° WSW 05:43:59 33° NNW
Atlas Centaur 2 2.7 05:41:51 24° NNE 05:42:36 26° NNE 05:46:04 10° E
HETE-2 4.4 05:44:46 70° NNW 05:44:56 71° N 05:49:02 10° E
Cosmos 1733 Rocket 4.3 05:48:30 25° SSW 05:48:30 25° SSW 05:50:37 10° SSW
Cosmos 1315 Rocket 3.6 05:50:55 36° SW 05:50:55 36° SW 05:53:45 10° S
GPS 2-14 Rocket1 2.9 05:50:01 51° SW 05:50:26 54° SSW 05:54:25 10° SE
Cosmos 1606 3.9 05:48:25 10° SSE 05:52:04 43° E 05:55:43 10° NNE
COSMOS 2455 3.9 05:49:50 10° S 05:55:34 47° ESE 06:01:17 10° NE
CZ-3A R/B 4.3 05:54:47 10° S 05:58:06 18° SE 06:06:05 10° E
Ariane H10-3 1.9 05:57:53 50° SSW 05:58:10 54° S 06:02:38 10° ESE
USA 116 3.7 05:54:54 10° SSE 05:58:17 62° E 06:01:25 10° N
IUS-13 SRM-1 2.2 06:00:30 44° NW 06:01:16 71° NNE 06:08:11 10° ESE
Cosmos 1607 4.5 06:00:48 25° WSW 06:03:03 32° WNW 06:08:24 10° N
Cosmos 1908 Rocket 3.4 05:59:31 10° N 06:03:58 75° W 06:08:24 10° S
ISS -1.9 06:01:04 10° SSW 06:04:10 39° SE 06:07:15 10° NE
S3M 4.1 05:57:59 10° SSW 06:04:12 56° W 06:10:24 10° N
Meteor 1-10 Rocket 4.1 05:58:59 10° S 06:04:32 89° W 06:10:05 10° N
Cosmos 1818 3.6 06:01:33 22° NW 06:04:54 55° WSW 06:10:09 10° S
Sich 1 Rocket 3.5 06:00:38 10° N 06:05:02 67° W 06:09:26 10° S
Cosmos 407 Rocket 4.1 05:59:56 10° N 06:05:08 60° ENE 06:10:18 10° SSE
Abrixas rocket 3.4 06:08:57 25° SW 06:08:57 25° SW 06:11:39 10° S
Cosmos 1782 Rocket 4.0 06:05:16 10° N 06:09:38 63° E 06:13:58 10° SSE
Cosmos 1553 Rocket 4.2 06:06:00 10° SSW 06:11:42 43° W 06:17:28 10° NNW
ARIANE 3 DEB 3.9 06:08:32 22° WNW 06:11:59 41° NNW 06:15:20 10° ENE
SEDSat Delta rocket 3.6 06:11:31 17° NNW 06:14:22 44° NNE 06:18:17 10° ESE
Cosmos 1656 4.5 06:11:26 10° S 06:16:56 56° ESE 06:22:28 10° NNE
COS B Rocket 3.4 06:21:08 23° WSW 06:21:08 23° WSW 06:22:40 10° SSW
ATLAS 3B CENTAUR R/B 1.8 06:21:36 16° NW 06:23:37 51° NE 06:29:07 10° ESE
Meteor 2-11 Rocket 4.4 06:17:44 10° SSW 06:23:44 61° W 06:29:42 10° N
Fermi 4.5 06:24:56 17° W 06:27:41 40° SSW 06:31:37 10° SE
Cosmos 1697 Rocket 3.8 06:24:12 10° S 06:29:38 49° ESE 06:35:02 10° NNE
OTV 4 2.5 06:30:44 11° WSW 06:31:36 12° SW 06:32:52 10° SSW
Cosmos 1190 Rocket 4.2 06:27:41 10° NNW 06:32:47 50° WSW 06:37:55 10° S
Okean 2 Rocket 3.0 06:30:11 10° N 06:34:35 84° W 06:39:01 10° S
CZ-2C R/B 3.3 06:30:25 10° NNE 06:35:24 58° ESE 06:40:30 10° S
USA 238 DEB 4.4 06:29:45 10° SW 06:35:49 32° WNW 06:41:53 10° N
USA 238 4.4 06:29:49 10° SW 06:35:54 32° WNW 06:42:00 10° N
OAO 2 Rocket 4.4 06:32:19 10° SW 06:37:06 43° SE 06:41:47 10° ENE
NOSS 3-2 (A) 3.3 06:31:34 10° SSW 06:37:26 78° WNW 06:43:20 10° NNE
CZ-3 Stage 3 4.1 06:34:10 10° NW 06:40:17 88° NNE 07:22:39 10° ESE
Cosmos 1833 4.2 06:34:47 10° NNW 06:40:23 87° WSW 06:46:03 10° SSE
Meteor 1-27 Rocket 3.7 06:35:21 10° SSW 06:40:56 70° W 06:46:37 10° N
CZ-4 R/B 2.1 06:38:35 10° NNE 06:42:34 60° ESE 06:46:30 10° S
Ariane V96 H10-3 3.4 06:43:54 10° WSW 06:47:07 31° S 06:49:06 10° ESE
COSMO-SKYMED 1 2.6 06:43:05 10° S 06:47:26 85° W 06:51:45 10° NNW
BLOCK DM-SL R/B 2.3 06:45:05 10° W 06:48:12 89° N 07:03:15 10° E
PAYLOAD A 4.0 06:43:54 10° N 06:48:42 57° WNW 06:53:43 10° SSW
